Skip Navigation Linkswww.weather.gov 
NOAA logo - Click to go to the NOAA homepage National Weather Service   NWS logo - Click to go to the NWS homepage    
Western Region Headquarters
navigation bar decoration      
Regional Divisions
 
 
 
 
 
USA.gov is the U.S. government's official web portal to all federal, state and local government web resources and services.
spacer
Printer Friendly  |   Go Back  |  Version: Current   1   2   3   4   5   6   7   8   9   10   |  Font:  A A A  |  

HOURLY WEATHER ROUNDUP
 
 ASUS45 KREV 290210
RWRNV
NEVADA REGIONAL WEATHER ROUNDUP
NATIONAL WEATHER SERVICE RENO NV
700 PM PDT SAT MAR 28 2015

NOTE: "FAIR" INDICATES FEW OR NO CLOUDS BELOW 12,000 FEET WITH NO
SIGNIFICANT WEATHER AND/OR OBSTRUCTIONS TO VISIBILITY.

NVZ001-003-004-290300-
WESTERN NEVADA

CITY SKY/WX TMP DP RH WIND PRES REMARKS
RENO MOCLDY 67 8 10 NE14 30.21R
CARSON CITY FAIR 64 14 14 NE9 30.21R
MINDEN FAIR 66 18 15 NE6 30.21
SLIDE MTN N/A 43 19 39 CALM N/A
FALLON CLEAR 67 9 10 NE7 30.18R
LOVELOCK CLEAR 66 -4 6 N10 30.20R
HAWTHORNE CLEAR 66 18 15 W10 30.19R
$$

NVZ002-CAZ072-073-290300-
NORTHERN AND CENTRAL SIERRA

CITY SKY/WX TMP DP RH WIND PRES REMARKS
S. LAKE TAHOE PTCLDY 56 24 29 CALM 30.25S
TRUCKEE PTCLDY 59 21 23 NE5 30.25S
SQUAW VLY 8000 N/A 46 21 36 CALM N/A
BLUE CANYON PTCLDY 62 31 31 W3 30.24S
MAMMOTH LAKES FAIR 59 16 18 NE6 30.27R
BRIDGEPORT FAIR 57 13 17 MISG 30.25R
$$

NVZ030-031-036-290300-
NORTHERN NEVADA

CITY SKY/WX TMP DP RH WIND PRES REMARKS
ELKO CLEAR 59 12 15 N8 30.25R
WINNEMUCCA CLEAR 61 12 14 N6 30.23S
WENDOVER PTCLDY 64 12 13 N17G24 30.15R
$$

NVZ035-037-290300-
CENTRAL NEVADA

CITY SKY/WX TMP DP RH WIND PRES REMARKS
ELY PTCLDY 63 5 10 NW8G20 30.21R
EUREKA N/A 59 17 19 N14 30.23R
$$

NVZ013-014-290300-
SOUTH CENTRAL NEVADA

CITY SKY/WX TMP DP RH WIND PRES REMARKS
TONOPAH MOCLDY 69 11 10 NW12 30.17S
$$

NVZ017-020-022-290300-
SOUTHERN NEVADA

CITY SKY/WX TMP DP RH WIND PRES REMARKS
LAS VEGAS CLEAR 86 9 5 SW12 29.92S
N. LAS VEGAS CLEAR 86 8 5 SW8 29.95S
NELLIS AFB CLEAR 86 26 11 S5 29.93S
HENDERSON CLEAR 84 13 7 SW7 30.00R
MERCURY CLEAR 77 16 10 W7 30.03S
$$


Webmaster
US Dept of Commerce
National Oceanic and Atmospheric Administration
National Weather Service
Western Region Headquarters
125 South State Street
Salt Lake City, UT 84138-1102

Disclaimer
Information Quality
Credits
Glossary
Organization
Privacy Policy
Freedom of Information Act
About Us
Career Opportunities